Linden, NJ

12:47 AM EST on December 06, 2019 (GMT -0500)
Linden

Weather History for KLDJ - November, 2019

Change the Weather History Date:

Thursday, November 14, 2019

  Actual Average (KEWR) Record (KEWR)
Temperature  
Mean Temperature 34 °F -  
Max Temperature 45 °F 54 °F 73 °F (1993)
Min Temperature 24 °F 38 °F 21 °F (1986)
Degree Days  
Heating Degree Days 30    
Moisture  
Dew Point 18 °F    
Average Humidity 51    
Maximum Humidity 70    
Minimum Humidity 36    
Precipitation  
Precipitation 0.00 in - - ()
Sea Level Pressure  
Sea Level Pressure 30.39 in    
Wind  
Wind Speed 1 mph ()    
Max Wind Speed 8 mph    
Max Gust Speed -    
Visibility 10.0 miles    
Events      
Averages and records for this station are not official NWS values.
T = Trace of Precipitation, MM = Missing Value Source: Averaged Metar Reports

Daily Weather History Graph

Daily Weather History Graph

Search for Another Location

Airport or City:

Astronomy

Nov. 14, 2019 Rise Set
Actual Time 6:42 AM EST 4:40 PM EST
Civil Twilight 6:12 AM EST 5:09 PM EST
Nautical Twilight 5:39 AM EST 5:42 PM EST
Astronomical Twilight 5:07 AM EST 6:14 PM EST
Moon 6:23 PM EST (11/14) 8:35 AM EST (11/14)
Length of Visible Light 10h 56m
Length of Day
9h 58m
Waning Gibbous, 95% of the Moon is Illuminated
Nov 14
Waning Gibbous
Nov 19
Last Quarter
Nov 26
New
Dec 4
First Quarter
Dec 12
Full

Hourly Weather History & Observations

Time (EST) Temp. Windchill Dew Point Humidity Pressure Visibility Wind Dir Wind Speed Gust Speed Precip Events Conditions
12:15 AM 27.7 °F - 9.9 °F 47% 30.46 in 10.0 mi Calm Calm - N/A   Clear
12:35 AM 27.9 °F - 10.4 °F 48% 30.46 in 10.0 mi Calm Calm - N/A   Clear
12:55 AM 27.3 °F - 11.8 °F 52% 30.46 in 10.0 mi Calm Calm - N/A   Clear
1:15 AM 27.5 °F - 11.3 °F 51% 30.46 in 10.0 mi Calm Calm - N/A   Clear
1:35 AM 27.9 °F - 10.9 °F 49% 30.45 in 10.0 mi Calm Calm - N/A   Clear
1:55 AM 27.9 °F - 11.1 °F 50% 30.46 in 10.0 mi Calm Calm - N/A   Clear
2:15 AM 27.3 °F - 12.2 °F 53% 30.45 in 10.0 mi Calm Calm - N/A   Clear
2:35 AM 27.0 °F - 12.2 °F 54% 30.45 in 10.0 mi Calm Calm - N/A   Clear
2:55 AM 27.1 °F - 12.9 °F 55% 30.44 in 10.0 mi Calm Calm - N/A   Clear
3:15 AM 27.0 °F - 13.3 °F 56% 30.45 in 10.0 mi Calm Calm - N/A   Clear
3:35 AM 26.2 °F - 14.0 °F 60% 30.44 in 10.0 mi Calm Calm - N/A   Clear
3:55 AM 25.9 °F - 13.6 °F 60% 30.44 in 10.0 mi Calm Calm - N/A   Clear
4:15 AM 26.6 °F - 13.6 °F 58% 30.44 in 10.0 mi Calm Calm - N/A   Clear
4:35 AM 26.6 °F - 13.6 °F 58% 30.44 in 10.0 mi Calm Calm - N/A   Clear
4:55 AM 26.6 °F - 14.0 °F 59% 30.44 in 10.0 mi Calm Calm - N/A   Clear
5:15 AM 26.6 °F - 14.2 °F 60% 30.44 in 10.0 mi Calm Calm - N/A   Clear
5:35 AM 26.4 °F - 14.5 °F 61% 30.44 in 10.0 mi Calm Calm - N/A   Clear
5:55 AM 26.2 °F - 14.7 °F 62% 30.44 in 10.0 mi Calm Calm - N/A   Clear
6:35 AM 26.4 °F - 15.4 °F 63% 30.44 in 10.0 mi Calm Calm - N/A   Clear
6:55 AM 26.2 °F - 15.8 °F 65% 30.45 in 10.0 mi Calm Calm - N/A   Clear
7:15 AM 24.8 °F - 16.2 °F 70% 30.46 in 10.0 mi Calm Calm - N/A   Clear
7:35 AM 25.7 °F - 16.9 °F 69% 30.46 in 10.0 mi Calm Calm - N/A   Clear
7:55 AM 26.4 °F - 16.9 °F 67% 30.47 in 10.0 mi Calm Calm - N/A   Clear
8:15 AM 28.0 °F - 16.7 °F 62% 30.47 in 10.0 mi Calm Calm - N/A   Clear
8:35 AM 30.0 °F - 17.2 °F 59% 30.47 in 10.0 mi Calm Calm - N/A   Clear
8:55 AM 31.5 °F - 17.2 °F 56% 30.47 in 10.0 mi Calm Calm - N/A   Clear
9:15 AM 32.0 °F - 17.8 °F 56% 30.47 in 10.0 mi Calm Calm - N/A   Clear
9:35 AM 32.9 °F - 15.1 °F 48% 30.46 in 10.0 mi Calm Calm - N/A   Clear
10:15 AM 35.4 °F - 13.3 °F 40% 30.46 in 10.0 mi Calm Calm - N/A   Clear
10:55 AM 37.4 °F - 14.7 °F 40% 30.44 in 10.0 mi Calm Calm - N/A   Clear
11:15 AM 39.0 °F - 17.4 °F 42% 30.42 in 10.0 mi Calm Calm - N/A   Clear
11:35 AM 41.0 °F 36.4 °F 18.7 °F 41% 30.41 in 10.0 mi West 6.9 mph - N/A   Clear
11:55 AM 41.7 °F 38.0 °F 18.7 °F 40% 30.40 in 10.0 mi West 5.8 mph - N/A   Clear
12:15 PM 42.6 °F 39.0 °F 19.0 °F 39% 30.39 in 10.0 mi South 5.8 mph - N/A   Clear
12:35 PM 43.0 °F 38.2 °F 19.4 °F 39% 30.38 in 10.0 mi SW 8.1 mph - N/A   Clear
12:55 PM 44.2 °F 41.0 °F 19.9 °F 38% 30.37 in 10.0 mi SW 5.8 mph - N/A   Clear
1:15 PM 44.2 °F 41.0 °F 19.8 °F 38% 30.37 in 10.0 mi SW 5.8 mph - N/A   Clear
1:55 PM 43.9 °F 40.5 °F 20.5 °F 39% 30.35 in 10.0 mi SSW 5.8 mph - N/A   Clear
2:55 PM 45.0 °F - 20.5 °F 38% 30.34 in 10.0 mi Calm Calm - N/A   Clear
3:15 PM 44.6 °F 40.2 °F 19.0 °F 36% 30.34 in 10.0 mi West 8.1 mph - N/A   Clear
3:35 PM 44.2 °F - 20.3 °F 39% 30.34 in 10.0 mi Calm Calm - N/A   Clear
3:55 PM 44.1 °F 41.5 °F 20.1 °F 39% 30.33 in 10.0 mi WSW 4.6 mph - N/A   Clear
4:15 PM 43.7 °F - 20.1 °F 39% 30.33 in 10.0 mi Calm Calm - N/A   Clear
4:35 PM 43.3 °F - 21.2 °F 41% 30.33 in 10.0 mi Calm Calm - N/A   Clear
4:55 PM 43.2 °F - 22.1 °F 43% 30.33 in 10.0 mi Calm Calm - N/A   Clear
5:15 PM 43.0 °F - 22.8 °F 45% 30.33 in 10.0 mi Calm Calm - N/A   Clear
5:35 PM 42.4 °F - 23.5 °F 47% 30.33 in 10.0 mi Calm Calm - N/A   Clear
5:55 PM 42.1 °F - 24.1 °F 49% 30.33 in 10.0 mi Calm Calm - N/A   Clear
6:15 PM 42.8 °F - 23.9 °F 47% 30.33 in 10.0 mi Calm Calm - N/A   Clear
6:35 PM 42.8 °F - 24.1 °F 48% 30.33 in 10.0 mi Calm Calm - N/A   Clear
6:55 PM 42.8 °F - 23.9 °F 47% 30.32 in 10.0 mi Calm Calm - N/A   Clear
7:15 PM 42.4 °F 40.7 °F 24.3 °F 49% 30.32 in 10.0 mi SSW 3.5 mph - N/A   Clear
7:35 PM 42.3 °F - 24.8 °F 50% 30.32 in 10.0 mi Calm Calm - N/A   Clear
7:55 PM 42.3 °F - 24.4 °F 49% 30.31 in 10.0 mi Calm Calm - N/A   Clear
8:15 PM 41.9 °F 39.0 °F 23.9 °F 49% 30.32 in 10.0 mi West 4.6 mph - N/A   Clear
8:35 PM 41.5 °F - 23.9 °F 50% 30.32 in 10.0 mi Calm Calm - N/A   Clear
8:55 PM 41.2 °F 37.3 °F 24.3 °F 51% 30.32 in 10.0 mi West 5.8 mph - N/A   Clear
9:15 PM 40.8 °F - 24.4 °F 52% 30.32 in 10.0 mi Calm Calm - N/A   Clear
9:35 PM 40.5 °F - 24.1 °F 52% 30.32 in 10.0 mi Calm Calm - N/A   Clear
10:15 PM 40.1 °F - 23.5 °F 52% 30.32 in 10.0 mi Calm Calm - N/A   Clear
10:35 PM 39.6 °F - 23.7 °F 53% 30.32 in 10.0 mi Calm Calm - N/A   Scattered Clouds
10:55 PM 39.4 °F - 23.7 °F 54% 30.32 in 10.0 mi Calm Calm - N/A   Scattered Clouds
11:15 PM 38.8 °F - 23.7 °F 55% 30.32 in 10.0 mi Calm Calm - N/A   Clear
11:35 PM 38.5 °F 36.1 °F 23.9 °F 56% 30.31 in 10.0 mi West 3.5 mph - N/A   Clear
11:55 PM 38.1 °F - 23.7 °F 56% 30.31 in 10.0 mi Calm Calm - N/A   Clear